Location: Arcola
(39.0479°N, 77.0516°W)
Time: 05:43:40
(UTC+00:00)

Daily predictions for brighter satellites

Satellite Brightness Start Highest point End
(mag) Time Altitude Azimuth Time Altitude Azimuth Time Altitude Azimuth
PSLV R/B 4.1 00:00:11 10° S 00:04:08 53° W 00:08:06 10° NNW
RESURS DK-1 3.1 00:02:58 10° NNW 00:05:59 47° NW 00:05:59 47° NW
Okean 2 Rocket 3.3 00:03:07 10° SSW 00:07:30 67° W 00:08:00 61° NW
Nadezhda 4 Rocket 4.0 00:04:17 10° N 00:10:36 81° W 00:16:48 10° S
ATLAS 2AS CENTAUR R/B 4.4 00:08:02 10° N 00:10:49 17° NNE 00:10:49 17° NNE
SJ 16-02 1.9 00:11:11 10° SSW 00:15:05 54° W 00:15:05 54° W
ISS -1.0 00:12:56 10° WNW 00:14:17 16° NW 00:14:17 16° NW
ATLAS 2A CENTAUR R/B 4.3 00:08:59 10° WSW 00:16:13 21° SSW 00:17:16 20° S
Cosmos 1536 Rocket 4.5 00:15:52 10° NNW 00:19:15 44° NW 00:19:15 44° NW
Cosmos 2195 Rocket 4.4 00:18:06 10° N 00:24:26 86° E 00:25:05 73° SSE
ATLAS 5 CENTAUR R/B 3.9 00:21:12 10° WNW 00:25:23 28° WSW 00:30:17 10° S
Cosmos 371 Rocket 4.3 00:28:04 10° SSW 00:31:39 44° WSW 00:31:39 44° WSW
USA 281 4.2 01:07:16 39° NNW 01:07:16 39° NNW 01:11:13 10° NNW
Cosmos 2082 Rocket 4.4 01:25:18 10° NW 01:28:04 20° WNW 01:28:04 20° WNW
Cosmos 2237 Rocket 4.1 08:43:08 21° NNE 08:43:08 21° NNE 08:44:58 10° NNE
Cosmos 2278 Rocket 3.9 08:43:28 26° SE 08:43:28 26° SE 08:45:58 10° SE
Cosmos 1943 Rocket 4.0 08:46:29 22° SE 08:46:29 22° SE 08:48:25 10° SE
USA 267 3.4 08:47:44 10° NE 08:53:32 69° ENE 08:53:32 69° ENE
ATLAS 3B R/B 4.3 08:55:21 10° S 09:01:45 34° ESE 09:08:31 10° NE
Atlas 2A Centaur Rocket 4.5 09:18:28 17° S 09:18:28 17° S 09:20:04 10° SE
Cosmos 2292 Rocket 4.4 09:20:13 62° NE 09:20:13 62° NE 09:25:26 10° N
ACS3 Solar Sail 4.0 09:20:25 10° N 09:20:28 10° N 09:20:28 10° N
USA 234 4.3 09:22:48 10° E 09:28:41 37° NNE 09:31:50 24° NNW
Cosmos 1864 Rocket 4.3 09:30:10 37° NNW 09:32:51 77° W 09:39:10 10° S
SL-16 R/B 4.5 09:31:42 10° SSW 09:32:31 14° SSW 09:32:31 14° SSW
Cosmos 1624 Rocket 4.1 09:34:26 23° S 09:37:38 72° ESE 09:42:48 10° NNE
Cosmos 2061 Rocket 4.3 09:33:30 10° N 09:39:40 66° E 09:45:49 10° SSE
Cosmos 2251 Rocket 3.6 09:38:22 37° N 09:40:31 75° ENE 09:45:52 10° SSE
SL-16 R/B 2.6 09:37:17 10° S 09:42:51 61° ESE 09:48:27 10° NNE
PAYLOAD A 4.1 09:41:10 10° N 09:45:53 58° NW 09:45:53 58° NW
Cosmos 1725 Rocket 3.9 09:40:56 10° NNW 09:47:11 65° W 09:53:23 10° S
Cosmos 2233 Rocket 3.9 09:42:53 10° N 09:49:12 88° E 09:55:26 10° S
BREEZE-M DEB (TANK) 2.9 09:54:01 38° ESE 09:54:01 38° ESE 09:56:16 10° ENE
CZ-2C R/B 3.9 09:56:20 10° N 09:58:22 22° NNW 09:58:22 22° NNW
Cosmos 2346 Rocket 4.4 09:55:02 10° S 10:01:10 89° E 10:07:17 10° N
SJ-11-01 4.1 10:00:23 10° N 10:05:05 85° WNW 10:09:47 10° SSW
SL-08 R/B 4.5 10:02:01 10° NNW 10:08:00 55° W 10:14:04 10° SSW
Cosmos 1802 Rocket 4.4 10:06:58 30° NW 10:09:01 38° W 10:14:40 10° SSW
Cosmos 1190 Rocket 4.0 10:15:29 21° NNW 10:18:50 57° WSW 10:23:54 10° S
SKYMED 2 3.8 10:15:15 10° SSE 10:19:33 72° ENE 10:23:54 10° N
Aureole 3 4.1 10:13:33 10° SSW 10:19:36 64° W 10:24:44 10° N
SJ 16-02 1.1 10:18:05 21° NNW 10:20:52 73° WSW 10:25:06 10° S
Cosmos 676 Rocket 3.9 10:16:02 10° NNW 10:21:16 88° ENE 10:26:27 10° SSE
COSMO-SKYMED 1 3.3 10:18:22 10° SSE 10:22:21 51° ENE 10:26:22 10° N
Cosmos 2237 Rocket 3.7 10:24:59 18° NW 10:24:59 18° NW 10:27:46 10° N
Cosmos 2278 Rocket 3.6 10:25:22 18° WSW 10:25:22 18° WSW 10:28:00 10° SW
Cosmos 1943 Rocket 3.8 10:28:04 15° WSW 10:28:04 15° WSW 10:29:38 10° SW
Cosmos 2056 Rocket 3.9 10:21:55 12° SW 10:26:29 40° WNW 10:31:33 10° N
USA 229 DEB 3.3 10:25:19 10° SW 10:31:05 68° NW 10:37:32 10° NNE
USA 229 3.3 10:25:32 10° SW 10:31:17 69° NW 10:37:44 10° NNE
Cosmos 2297 4.4 10:25:48 10° NNW 10:31:20 54° ENE 10:36:49 10° SE
Cosmos 1025 Rocket 4.2 10:28:06 10° SSE 10:32:14 46° E 10:36:25 10° NNE
Cosmos 1954 Rocket 4.1 10:28:36 13° NNW 10:32:59 52° WSW 10:37:56 10° S
Cosmos 1943 3.9 10:28:04 10° S 10:33:32 56° ESE 10:39:00 10° NNE
Cosmos 2369 Rocket 2.7 10:30:45 10° NNW 10:36:24 62° ENE 10:42:02 10° SE
USA 267 3.9 10:31:07 10° NE 10:36:54 35° NNW 10:40:54 18° W
Cosmos 1674 Rocket 3.7 10:33:31 10° S 10:37:56 79° E 10:42:22 10° N
Lacrosse 5 rocket 3.6 10:40:03 10° NNE 10:40:45 10° NNE 10:41:26 10° NE
IRS-1D 3.6 10:37:14 10° N 10:41:56 46° WNW 10:46:37 10° SW
Cosmos 1484 Rocket 3.0 10:40:02 10° NNE 10:43:33 63° ESE 10:47:00 10° S
SWARM C 4.4 10:40:25 10° S 10:43:41 61° W 10:46:58 10° N
SWARM A 4.1 10:40:30 10° S 10:43:48 75° W 10:47:07 10° N
Cosmos 1400 Rocket 2.8 10:40:34 10° N 10:44:15 71° E 10:47:52 10° SSE
RUBIN 8/PSLV 4.5 10:41:56 10° N 10:46:20 78° WNW 10:50:40 10° SSW
Cosmos 1513 Rocket 4.5 10:41:16 10° N 10:47:39 78° W 10:53:54 10° S
Helios 1A Rocket 2.5 10:45:56 10° S 10:49:13 52° W 10:52:31 10° NNW
Cosmos 2221 Rocket 4.1 10:44:52 10° S 10:49:20 67° E 10:53:50 10° NNE
Cosmos 1869 3.8 10:47:38 16° NW 10:49:43 28° W 10:52:44 10° SSW
Lacrosse 4 Rocket 4.1 10:48:49 10° NNE 10:50:02 11° NE 10:51:14 10° ENE
Cosmos 371 Rocket 3.7 10:45:48 10° NNW 10:50:22 42° WSW 10:54:54 10° S
ATLAS 3B R/B 3.1 10:44:54 10° SW 10:52:11 55° NW 10:59:53 10° NNE
Cosmos 968 Rocket 3.6 10:47:48 10° NNW 10:53:04 82° ENE 10:58:18 10° SSE
Cosmos 1812 2.8 10:53:55 13° NNW 10:56:06 30° W 10:58:40 10° SSW
Cosmos 1741 Rocket 4.5 10:51:53 10° NNW 10:57:11 65° ENE 11:02:25 10° SSE
CZ-4 R/B 4.4 10:52:50 10° N 10:57:12 35° WNW 11:01:28 10° SW
Cosmos 304 Rocket 4.4 10:53:39 10° NW 10:57:56 33° WSW 11:02:11 10° SSW
CENTAUR R/B 3.6 10:50:21 10° NNW 10:58:59 79° NE 11:08:31 10° SE
Cosmos 2151 Rocket 3.5 10:55:42 10° N 11:00:11 77° W 11:04:36 10° S
Cosmos 1110 Rocket 4.2 10:56:49 10° SW 11:01:57 52° WNW 11:07:08 10° N
Cosmos 1378 Rocket 4.1 11:01:42 10° SW 11:05:33 33° WNW 11:09:26 10° NNW
Cosmos 1302 Rocket 4.5 11:00:32 10° S 11:05:38 66° ESE 11:10:46 10° NNE
Sich 1 Rocket 3.7 11:03:14 10° N 11:07:46 81° E 11:12:14 10° S
USA 234 3.3 11:04:48 10° SE 11:11:20 73° SW 11:17:55 10° NW
Cosmos 1656 Rocket 4.4 11:07:08 10° NW 11:12:08 33° WSW 11:17:07 10° SSW
Thor Agena Rocket 4.0 11:07:15 10° NNE 11:12:26 69° ESE 11:17:30 10° S
Cosmos 1818 3.8 11:08:29 10° SSW 11:13:53 78° ESE 11:19:20 10° NE
ATLAS CENTAUR Rocket 4.5 11:10:22 10° SSW 11:14:15 24° SE 11:22:55 10° E
Okean 1 Rocket 3.0 11:12:52 10° N 11:17:12 79° W 11:21:28 10° S
Cosmos 332 Rocket 3.8 11:14:29 10° NNW 11:19:17 85° WSW 11:24:03 10° SSE
CZ-3 R/B 2.9 11:09:08 10° WSW 11:19:41 35° SSW 11:24:14 10° SE
